Regional Weather Roundup
Issued by NWS

Home | Current Version | Previous Version | Text Only | Print | Product List | Glossary On
Versions: 1 2 3 4 5 6 7 8 9 10 11 12 13 14 15 16 17 18 19 20 21 22 23 24 25 26 27 28 29 30 31 32 33 34 35 36 37 38 39 40 41 42 43 44 45 46 47 48 49 50
000
ASUS43 KDTX 260510
RWRMI
MICHIGAN HOURLY REGIONAL WEATHER ROUNDUP
NATIONAL WEATHER SERVICE DETROIT/PONTIAC MI
100 AM EDT MON SEP 26 2016

NOTE: "FAIR" INDICATES FEW OR NO CLOUDS BELOW 12,000 FEET WITH NO
SIGNIFICANT WEATHER AND/OR OBSTRUCTION TO VISIBILITY.

MIZ047>049-052>055-059>063-066>070-074>076-081>083-260600-
SOUTHEAST LOWER MICHIGAN

CITY           SKY/WX    TMP DP  RH WIND       PRES   REMARKS
ADRIAN         CLOUDY    64  56  75 SE5       29.97F
ALMA           PTCLDY    63  54  72 S7        29.90F
ANN ARBOR      MOCLDY    63  57  81 E5        29.97F
BAD AXE        PTCLDY    58  50  74 SE10G16   29.97F
CARO           CLOUDY    60  52  74 SE12G22   29.93F
DETROIT CITY   PTCLDY    64  58  80 SE8       29.98F
DETROIT        CLOUDY    64  57  78 E7        29.98F
FLINT          MOCLDY    64  54  69 S15G23    29.94F
GROSSE ILE     CLEAR     69  59  69 SE10      29.97F
HILLSDALE      CLOUDY    61  54  77 SE7       29.96F
HOWELL         LGT RAIN  62  56  82 SE10      29.96F

CITY           SKY/WX    TMP DP  RH WIND       PRES   REMARKS
JACKSON        PTCLDY    63  58  83 SE13      29.94F
LAMBERTVILLE   CLOUDY    65  55  69 CALM      29.97F
LANSING        CLOUDY    64  52  64 SE15      29.92F
LAPEER         FAIR      58  52  79 SE13      29.97F
MASON          PTCLDY    62  56  81 SE7       29.94F
MONROE         PTCLDY    69  55  60 SE6       29.97F
MT. CLEMENS    CLEAR     64  59  83 SE8       29.97F
PONTIAC        MOCLDY    63  55  75 SE10      29.97F
PORT HOPE        N/A     62  50  64 SE12G22   29.94F
PORT HURON     CLOUDY    57  50  77 SE6       30.00F
TRI CITIES     LGT RAIN  60  54  80 SE10      29.91F
MIDLAND        CLOUDY    60  52  74 SE8       29.89F
TROY           PTCLDY    64  55  73 CALM      30.00F
SAGINAW HB     LGT RAIN  61  52  72 SE13      29.91F
$$
MIZ043>046-050>051-056>058-064>065-071>073-077>080-260600-
SOUTHWEST LOWER MICHIGAN

CITY           SKY/WX    TMP DP  RH WIND       PRES   REMARKS
BATTLE CREEK   PTCLDY    65  55  70 S13       29.92F
BENTON HARBOR  CLOUDY    71  64  78 W13G21    29.92R
BIG RAPIDS     CLOUDY    63  54  74 S9        29.86F
COLDWATER      CLOUDY    62  56  81 SE7       29.93F
FREMONT        HVY RAIN  65  64  99 S7        29.88R
HOLLAND        LGT RAIN  70  66  87 SW12      29.90R FOG
GRAND RAPIDS   LGT RAIN  65  57  75 S8        29.89S
IONIA          FAIR      63  50  62 S12       29.89S
KALAMAZOO      MOCLDY    67  54  63 S7        29.92F
LUDINGTON      LGT RAIN  64  61  88 NW9       29.84S
MARSHALL       CLEAR     64  55  71 SE6       29.92F
MOUNT PLEASANT CLOUDY    62  51  67 CALM      29.88F
MUSKEGON       CLOUDY    69  67  93 W9        29.88R
SOUTH HAVEN    DRIZZLE   72  70  93 W10G17    29.91R
$$
MIZ016>042-260600-
NORTHERN LOWER MICHIGAN

CITY           SKY/WX    TMP DP  RH WIND       PRES   REMARKS
ALPENA         CLOUDY    63  49  60 SE15      29.90F
BEAVER ISLAND  RAIN      61  60  97 S7        29.81F
BELLAIRE       RAIN      60  57  91 SW3       29.85S
CADILLAC       RAIN      60  54  79 S6        29.85F
CHARLEVOIX     LGT RAIN  60  58  94 S6        29.87S
FRANKFORT      RAIN      63  59  89 SE3       29.83S
GAYLORD        CLOUDY    60  51  72 S15       29.86F
GRAYLING       CLOUDY    57  53  86 SE10      29.88F
HARBOR SPRINGS RAIN      59  57  95 CALM      29.85S
HOUGHTON LAKE  MOCLDY    56  52  86 SE10      29.89F
MANISTEE       HVY RAIN  62  60  93 VRB3      29.85S FOG
OSCODA         CLOUDY    63  49  61 S16G24    29.92F
PELLSTON       RAIN      59  56  89 S7        29.85S FOG
ROGERS CITY    DRIZZLE   63  53  69 S15G23    29.86F
TRAVERSE CITY  LGT RAIN  62  59  90 CALM      29.84R
$$
MIZ007>008-015-260600-
EASTERN UPPER MICHIGAN

CITY           SKY/WX    TMP DP  RH WIND       PRES   REMARKS
KINROSS        LGT RAIN  59  57  94 SE21      29.84F
MACKINAC ISLAN HVY RAIN  58  58 100 SE9G20    29.84F
NEWBERRY       RAIN      59  58  97 S13       29.80F
S. S. MARIE    HVY RAIN  60  58  92 SE10      29.85F FOG
MUNISING         N/A     65  65 100 CALM      29.72F
$$
MIZ004>006-011>014-085-260600-
CENTRAL UPPER MICHIGAN

CITY           SKY/WX    TMP DP  RH WIND       PRES   REMARKS
MANISTIQUE     LGT RAIN  65  63  93 S9        29.76F
ESCANABA       CLOUDY    64  63  96 W9        29.76F
MENOMINEE        N/A    N/A N/A N/A MISG        N/A
SAWYER-GWINN   CLOUDY    60  58  93 SW6       29.75F
$$
MIZ001>003-009>011-084-260600-
WESTERN UPPER MICHIGAN

CITY           SKY/WX    TMP DP  RH WIND       PRES   REMARKS
IRON MOUNTAIN  CLOUDY    59  53  80 W7        29.77F
HOUGHTON       CLOUDY    58  51  78 W13       29.72F
COPPER HARBOR    N/A     60  57  89 VRB3      29.71F
IRONWOOD       CLOUDY    55  49  80 W14G24    29.78F
$$

ABBREVIATIONS USED IN REMARKS
   TC - TEMPERATURE IN CELSIUS
  WCI - WIND CHILL INDEX
   HX - HEAT INDEX
  VSB - VISIBILITY





USA.gov is the U.S. government's official web portal to all federal, state and local government web resources and services.